Weather in Tveri'a

Israel     32°46′57″N   35°31′34″E
temp.,
°C
wind,
m/s
gust,
m/s
humid.,
%
clouds,
%
prec.,
mm/h
press.,
hPa
HPBL,
m
6 march, sat
sat623:00+9n01860 0.0 102522
02:00+9n12880 0.0 102422
05:00+8nnw22870 0.0 102424
08:00+13n22710 0.0 1024183
11:00+18nne23460 0.0 1024659
14:00+22ne11340 0.0 1021779
17:00+18wsw11580 0.0 102129
20:00+12nw12830 0.0 102123
7 march, sun
sun723:00+11w01820 0.0 102023
02:00+10wnw11800 0.0 101822
05:00+9w11740 0.0 101923
08:00+13sw11660 0.0 1019175
11:00+19sse02510 0.0 1018742
14:00+20wnw55500 0.0 1016961
17:00+15w35710 0.0 1016234
20:00+11wnw22880 0.0 101729
8 march, mon
mon823:00+10w11900 0.0 101722
02:00+9wnw01920 0.0 101622
05:00+9n01933 0.0 101622
08:00+13s118113 0.0 1017230
11:00+17wsw346477 0.1 10161084
14:00+19w665672 0.1 10151478
17:00+16w47750 0.0 1016371
20:00+12w22910 0.0 101723
9 march, tue
tue923:00+11w11920 0.0 101722
02:00+10nw11930 0.0 101622
05:00+9nnw11930 0.0 101622
08:00+13ene10820 0.0 1018219
11:00+18ese21630 0.0 1017710
14:00+20ese325529 0.0 1015682
17:00+18nne116864 0.0 101523
20:00+14nnw227366 0.0 101624
10 march, wed
wed1023:00+13n235933 0.0 101525
02:00+14n234538 0.0 101428
05:00+14n1244100 0.0 101324
08:00+18ene245396 0.0 1013181
11:00+24ne353863 0.0 1012568
14:00+27sse453665 0.0 1008627
17:00+22wnw015239 0.0 100624
20:00+18wnw114820 0.0 100623